Volver al catálogo

STARLINK-34130

ActivoComunicacionesVLEO
NORAD 64736·PAYLOAD·🇺🇸 United States

Lanzado Jul 2, 2025 desde Cape Canaveral Space Force Station

Loading…

Próximos Pases (próximas 24 horas)

TLE

ActualizadoSource: CelesTrak SupGP

Época: Sep 15, 2026, 03:57 UTC

1 64736C 25144N   26258.16506944  .00064846  00000+0  19155-2 0  2588
2 64736  53.1599  18.5260 0001151  92.7716 334.9552 15.34364088    16

Sigue STARLINK-34130 en tiempo real con AllMySat

Download on the App Store